Regional Weather Roundup
Issued by NWS

Home | Current Version | Previous Version | Graphics & Text | Print | Product List | Glossary On
Versions: 1 2 3 4 5 6 7 8 9 10 11 12 13 14 15 16 17 18 19 20 21 22 23 24 25 26 27 28 29 30 31 32 33 34 35 36 37 38 39 40 41 42 43 44 45 46 47 48 49 50
000
ASUS45 KBOU 172307
RWRCO

WEATHER ROUNDUP FOR COLORADO
NATIONAL WEATHER SERVICE DENVER/BOULDER CO
500 PM MDT FRI APR 17 2015

NOTE: "FAIR" INDICATES FEW OR NO CLOUDS BELOW 12000 FEET WITH NO
SIGNIFICANT WEATHER AND/OR OBSTRUCTIONS TO VISIBILITY.

COZ001>005-013-030-031-180000-
...NORTHWEST COLORADO...

CITY           SKY/WX    TMP DP  RH WIND       PRES   REMARKS
CRAIG          CLOUDY    45  35  68 N3        29.94F
HAYDEN         CLOUDY    43  34  70 NE15      29.94S
MEEKER         CLOUDY    36  34  92 MISG      29.96R
MOUNT WERNER   NOT AVBL
STEAMBOAT SPGS CLOUDY    44  24  45 NE8G17    29.93F
WALDEN         CLOUDY    32  30  93 NW12      30.00F WCI  23
$$

COZ006>008-011-180000-
...WEST CENTRAL VALLEYS...

CITY           SKY/WX    TMP DP  RH WIND       PRES   REMARKS
GRAND JUNCTION CLOUDY    36  35  96 NE5       30.01R
MONTROSE       CLOUDY    43  29  57 CALM      30.00R
EAGLE          PTSUNNY   36  34  93 W6        29.97F
RIFLE          CLOUDY    43  35  73 W18       29.96F
DELTA          CLOUDY    44  36  73 NE9       30.00S
NUCLA          CLOUDY    37  34  87 N6        30.05S
$$

COZ017>023-064>068-180000-
...SOUTHWEST COLORADO...

CITY           SKY/WX    TMP DP  RH WIND       PRES   REMARKS
DURANGO        PTSUNNY   43  11  27 W10       30.00S
CORTEZ         PTSUNNY   41  28  60 NW10      30.03S
PAGOSA SPRINGS CLOUDY    39  13  33 S10       30.02R
TELLURIDE      CLOUDY    31  24  78 W9        30.01R WCI  22
WOLF CREEK PAS CLOUDY    18   7  62 SW12G22   30.04R WCI   5
$$

COZ009-010-012-014-032>034-037-058>063-180000-
...CENTRAL COLORADO...

CITY           SKY/WX    TMP DP  RH WIND       PRES   REMARKS
ASPEN          CLOUDY    32  29  88 SE3       29.95R
BUENA VISTA    PTSUNNY   33  20  60 CALM      30.02S
COPPER MTN     MOSUNNY   25   5  42 E20       29.99R WCI  11
BERTHOUD PASS  PTSUNNY   16   9  73 MISG      30.03R HAZE
COTTONWOOD PAS PTSUNNY   30  27  86 CALM      30.02R
GUNNISON       CLOUDY    32  23  69 E15       30.02R WCI  22
KREMMLING      CLOUDY    43  23  45 S9G18     29.97R
LEADVILLE      PTSUNNY   21  15  78 S14       29.99S WCI   8
MONARCH PASS     N/A     18  14  86 MISG      30.10S
SALIDA         PTSUNNY   39  24  54 NW3       30.07S
SUNLIGHT       HVY SNOW N/A N/A N/A CALM      30.02R VSB<1/4
WILKERSON PASS MOSUNNY   27  14  59 SW3       30.06R
$$

COZ069>075-180000-
...SAN LUIS VALLEY/SANGRE DE CRISTO MOUNTAINS...

CITY           SKY/WX    TMP DP  RH WIND       PRES   REMARKS
ALAMOSA        CLOUDY    43   8  23 SW15      29.97S
LA VETA PASS   PTSUNNY   32  18  55 S3        30.00F
SAGUACHE       PTSUNNY   37  23  56 N3        30.00S
$$

COZ035-036-038>040-180000-
...NORTHERN COLORADO FRONT RANGE...

CITY           SKY/WX    TMP DP  RH WIND       PRES   REMARKS
DENVER INTL AP PTSUNNY   51  36  56 NW8G18    29.97R
DMNS CITY PARK   N/A     51  33  52 N7        29.97S
AURORA         MOSUNNY   49  38  66 N7        29.97S
FRONT RANGE AP PTSUNNY   52  37  58 W13       29.97S
ERIE MUNI ARPT PTSUNNY   49  41  73 N14       29.99R
BOULDER MUN AP MOSUNNY   50  37  62 NE12G17   29.98R
CENTENNIAL     MOSUNNY   47  32  56 VRB5      29.97R
BROOMFIELD     PTSUNNY   48  41  76 N13       29.99
FORT COLLINS   CLOUDY    46  39  76 N16G23    30.01R
LONGMONT       CLOUDY    52  39  61 N14       30.00S
$$

COZ041-046-047-076>085-087-088-180000-
...PIKES PEAK/PALMER DIVIDE AND SOUTHERN FOOTHILLS...

CITY           SKY/WX    TMP DP  RH WIND       PRES   REMARKS
COLO. SPRINGS  MOSUNNY   52  14  22 SW14G20   29.96F
A. F. ACADEMY  MOSUNNY   48  14  25 VRB7      29.96S
ELLICOTT       PTSUNNY  N/A N/A N/A SW8       29.97R
FALCON         PTSUNNY   47  13  25 S8        29.99R
FORT CARSON    MOSUNNY   50  20  30 SW16G22   29.94S
LIMON          MOSUNNY   57  26  30 S15       29.93S
MONUMENT HILL  MOSUNNY   43  18  36 S7        29.97S
TRINIDAD       CLOUDY    49  25  39 W16       29.93R
$$

COZ042>045-048>051-090-091-180000-
...NORTHEAST COLORADO...

CITY           SKY/WX    TMP DP  RH WIND       PRES   REMARKS
GREELEY ARPT   CLOUDY    45  39  81 N14       29.99R
AKRON          TSTM      52  49  89 E7        29.94S
BURLINGTON     MOSUNNY   62  47  57 SE18G25   29.91F
WRAY           PTSUNNY   63  48  56 E15G41    29.93F
STERLING       PTSUNNY   55  50  82 SE10G18   29.93S
HOLYOKE        PTSUNNY   61  52  72 E15G21    29.95F
FORT MORGAN    PTSUNNY   57  49  76 E12G18    29.93F
$$

COZ086-089-092>099-180000-
...SOUTHEAST COLORADO...

CITY           SKY/WX    TMP DP  RH WIND       PRES   REMARKS
PUEBLO         PTSUNNY   53  30  41 W17       29.94R
LA JUNTA       CLOUDY    60  35  39 NW12G17   29.87R
LAMAR          SUNNY     69  18  14 S18       29.85S
SPRINGFIELD      N/A     64  15  15 S16G24    29.90R
$$



USA.gov is the U.S. government's official web portal to all federal, state and local government web resources and services.